User: anonymous   Login
Location: Observatorio Las Palmas
(29.0667°N, 110.9333°W)
Time: 12:25:53
(UTC-07:00)
Language:

Skynet4D Del rocket - Orbit

View from above orbital plane
View from above orbital plane
View from above satellite
View from above satellite

Ground track
Ground track

The orbit data is extracted from the following two-line orbital elements,

1 25135U 98002B   15115.81503317  .00000181  00000-0  50602-4 0  9993
2 25135 026.8877 345.1455 0356501 242.7088 198.4321 13.62302930861613
Epoch (UTC): 25 April 2015 19:33:38
Eccentricity: 0.0356501
inclination: 26.8877°
perigee height: 763 km
apogee height: 1291 km
right ascension of ascending node: 345.1455°
argument of perigee: 242.7088°
revolutions per day: 13.62302930
mean anomaly at epoch: 198.4321°
orbit number at epoch: 86161

The dashed part of the orbit path shows where the satellite is in the earth's shadow,  

DLR